sat.trackr.live / text

‹ back to catalog

QIANFAN-98

NORAD 66040 · 2025-233H

PAYLOAD ACTIVE UNKNOWN

§ Identity

Operator
Country
PRC
Launch date
2025-10-17
Launch site
TAISC
Launch vehicle
Mass (kg)
RCS (m²)

External: N2YO · Heavens-Above · Gunter

§ Orbital elements

Epoch: 2026-05-25T03:05:02.055264Z

Period
106.59 min
Inclination
89.0013°
Eccentricity
0.0001908
Mean motion
13.51006695 rev/d
Perigee alt
1,067.1 km
Apogee alt
1,070.0 km
Semi-major
7,446.7 km
B*
1.8850e-4
RAAN
45.2495°
Arg perigee
84.7161°
Mean anomaly
275.4208°
Rev number
3,021

§ Raw data

QIANFAN-981 66040U 25233H   26145.12849601  .00000134  00000+0  18850-3 0  99922 66040  89.0013  45.2495 0001908  84.7161 275.4208 13.51006695 30213

JSON: /api/v1/satellites/66040 · /tle

For live sub-satellite position, see the globe view (requires WebGL).

§ Visibility from observer

Set your observer location to see the next 7 days of passes ≥ 10°. The values pass through the URL so the page stays shareable.

No JS? Fill the form by hand. The geolocation button needs JavaScript.